EW5657 Weather Reports


time (UTC)temp
F
wind
direction
speed
knots
gust
knots
rain 1hr
in
rain 24hr
in
rain mn
in
humidity
%
barometer
mb
20260508061552 60 256 2.6 10.4 0.00 0.00 0.00 80 1024.3
20260508061050 60 212 2.6 7.8 0.00 0.00 0.00 80 1024.2
20260508060550 60 200 3.5 10.4 0.00 0.00 0.00 80 1024.2
20260508060050 60 191 3.5 10.4 0.00 0.00 0.00 80 1024.3
20260508055553 60 214 3.5 12.2 0.00 0.00 0.00 80 1024.3
20260508055050 59 205 3.5 12.2 0.00 0.00 0.00 81 1024.3
20260508054557 59 191 4.3 12.2 0.00 0.00 0.00 81 1024.1
20260508054551 59 175 2.6 10.4 0.00 0.00 0.00 81 1024.1
20260508053547 59 180 5.2 12.2 0.00 0.00 0.00 80 1024.2
20260508053045 60 219 4.3 11.3 0.00 0.00 0.00 80 1024.2
20260508052551 60 216 3.5 11.3 0.00 0.00 0.00 79 1024.2
20260508052546 60 206 3.5 11.3 0.00 0.00 0.00 79 1024.2
20260508051546 60 166 2.6 9.6 0.00 0.00 0.00 80 1024.1
20260508051048 60 165 3.5 11.3 0.00 0.01 0.00 80 1024.2
20260508050546 60 175 3.5 11.3 0.00 0.01 0.00 79 1024.1
20260508050047 60 208 4.3 12.2 0.00 0.01 0.00 79 1024.1
20260508045546 60 151 4.3 12.2 0.00 0.01 0.00 78 1024.2
20260508045046 61 185 4.3 12.2 0.00 0.01 0.00 77 1024.2
20260508044546 60 206 4.3 13.0 0.00 0.01 0.00 76 1024.2
20260508044048 61 191 4.3 13.0 0.00 0.01 0.00 75 1024.1
20260508043547 61 238 3.5 11.3 0.00 0.01 0.00 73 1024.1
20260508043045 61 139 3.5 8.7 0.00 0.01 0.00 74 1024.1
20260508042547 61 185 3.5 8.7 0.00 0.01 0.00 73 1024.2
20260508042213 61 199 3.5 8.7 0.00 0.01 0.00 74 1024.0
20260508042053 61 201 3.5 12.2 0.00 0.01 0.00 74 1024.0
20260508042047 61 185 3.5 12.2 0.00 0.01 0.00 73 1024.1
20260508040548 61 189 2.6 9.6 0.00 0.01 0.00 75 1024.0
20260508040046 60 207 2.6 9.6 0.00 0.01 0.00 75 1023.9
20260508035544 61 235 3.5 9.6 0.00 0.01 0.00 75 1024.0
20260508035044 61 175 2.6 9.6 0.00 0.01 0.00 75 1024.0
20260508034544 61 208 2.6 9.6 0.00 0.01 0.00 76 1023.9
20260508034049 60 202 3.5 13.9 0.00 0.01 0.00 75 1023.8
20260508034044 60 200 2.6 13.9 0.00 0.01 0.00 76 1023.9
20260508033717 60 201 4.3 14.8 0.00 0.01 0.00 74 1023.8
20260508032544 60 207 4.3 14.8 0.00 0.01 0.00 75 1023.8
20260508032046 60 203 4.3 10.4 0.00 0.01 0.00 76 1023.9
20260508031543 61 266 3.5 14.8 0.00 0.01 0.00 76 1023.8
20260508031042 61 255 4.3 14.8 0.00 0.01 0.00 75 1024.0
20260508030543 60 220 3.5 9.6 0.00 0.01 0.00 74 1024.0
20260508030044 60 175 3.5 8.7 0.00 0.02 0.00 75 1024.0
20260508025542 60 189 3.5 11.3 0.00 0.03 0.00 75 1024.0
20260508025041 61 185 3.5 11.3 0.00 0.04 0.00 76 1024.0
20260508024539 61 218 2.6 10.4 0.00 0.04 0.00 76 1024.0
20260508024038 61 185 1.7 10.4 0.00 0.04 0.00 78 1023.9
20260508023536 61 196 1.7 7.0 0.00 0.04 0.00 80 1023.9
20260508023037 60 211 1.7 7.0 0.00 0.04 0.00 79 1024.1
20260508022538 61 203 1.7 7.0 0.00 0.04 0.00 80 1024.3
20260508022036 61 209 1.7 8.7 0.00 0.04 0.00 79 1024.3
20260508021538 61 251 2.6 8.7 0.00 0.04 0.00 79 1024.5
20260508021034 61 218 1.7 7.0 0.00 0.04 0.00 81 1024.4
20260508020536 61 245 2.6 7.0 0.00 0.05 0.00 81 1024.5
20260508020039 60 243 1.7 7.8 0.00 0.05 0.00 82 1024.5
20260508020034 60 242 1.7 7.0 0.00 0.05 0.00 82 1024.5
20260508015033 60 262 2.6 8.7 0.00 0.05 0.00 82 1024.6
20260508014534 60 214 2.6 8.7 0.00 0.05 0.00 83 1024.6
20260508014034 59 213 2.6 10.4 0.00 0.05 0.00 83 1024.6
20260508013532 59 225 2.6 10.4 0.00 0.05 0.00 83 1024.4
20260508013032 59 239 1.7 7.8 0.00 0.05 0.00 83 1024.3
20260508012532 59 214 1.7 7.8 0.00 0.05 0.00 83 1024.3
20260508012033 59 216 1.7 7.8 0.00 0.05 0.00 82 1024.3
20260508011532 59 199 2.6 10.4 0.00 0.05 0.00 81 1024.4
20260508011039 60 210 2.6 7.8 0.00 0.05 0.00 83 1024.3
20260508011033 60 247 2.6 10.4 0.00 0.05 0.00 80 1024.4
20260508010030 60 175 2.6 7.8 0.00 0.05 0.00 84 1024.3
20260508005530 59 207 1.7 6.1 0.00 0.06 0.00 84 1024.2
20260508005030 59 191 2.6 9.6 0.00 0.06 0.00 84 1024.2
20260508004530 59 175 2.6 9.6 0.00 0.06 0.00 82 1024.2
20260508004029 60 251 2.6 10.4 0.00 0.06 0.00 82 1024.3
20260508003529 60 224 2.6 10.4 0.00 0.06 0.00 82 1024.2
20260508003132 60 237 1.7 8.7 0.00 0.06 0.00 82 1024.2
20260508002028 59 199 2.6 8.7 0.00 0.06 0.00 82 1023.9
20260508001526 59 233 2.6 12.2 0.00 0.07 0.00 82 1024.0
20260508001026 59 213 1.7 12.2 0.00 0.09 0.00 83 1023.9
20260508000526 59 213 1.7 9.6 0.00 0.09 0.00 83 1023.8
20260508000026 59 24 2.6 9.6 0.00 0.09 0.00 84 1023.8
20260507235526 58 237 2.6 9.6 0.00 0.09 0.00 84 1023.9
20260507235027 58 209 1.7 8.7 0.00 0.09 0.00 85 1023.8
20260507234531 58 227 1.7 7.8 0.00 0.09 0.00 86 1023.8
20260507234525 58 209 1.7 7.8 0.00 0.09 0.00 85 1023.8
20260507233527 58 227 1.7 7.0 0.00 0.11 0.00 87 1023.6
20260507233521 58 262 1.7 7.0 0.00 0.11 0.00 86 1023.8
20260507232523 57 209 1.7 7.0 0.00 0.11 0.00 86 1023.6
20260507232019 57 226 1.7 5.2 0.00 0.11 0.00 87 1023.5
20260507231520 57 217 1.7 5.2 0.00 0.11 0.00 88 1023.6
20260507231020 57 232 1.7 5.2 0.00 0.12 0.00 87 1023.4
20260507230520 57 215 0.9 7.8 0.00 0.12 0.00 87 1023.4
20260507230017 57 240 1.7 7.8 0.00 0.12 0.00 88 1023.5
20260507225519 57 210 1.7 7.8 0.00 0.12 0.00 88 1023.6
20260507225019 57 226 0.9 7.0 0.00 0.13 0.00 88 1023.6
20260507224515 57 185 0.9 7.0 0.00 0.15 0.00 88 1023.5
20260507224015 57 219 0.9 5.2 0.00 0.15 0.00 88 1023.4
20260507223515 57 241 0.9 10.4 0.00 0.15 0.00 88 1023.2
20260507223015 57 231 1.7 10.4 0.00 0.16 0.00 88 1023.2
20260507222515 56 262 1.7 7.8 0.00 0.16 0.00 88 1023.2
20260507222016 56 219 1.7 7.8 0.00 0.16 0.00 88 1023.2
20260507221517 56 175 0.9 5.2 0.00 0.16 0.00 89 1023.2
20260507221015 56 203 1.7 5.2 0.00 0.16 0.00 89 1023.2
20260507220515 56 235 1.7 5.2 0.00 0.16 0.00 89 1023.1
20260507220015 56 229 0.9 5.2 0.00 0.16 0.00 89 1023.1
20260507215517 56 228 0.9 5.2 0.00 0.16 0.00 89 1022.9
20260507215017 56 316 0.9 5.2 0.00 0.16 0.00 89 1022.9
20260507214515 56 241 0.9 7.8 0.00 0.16 0.00 89 1022.7
20260507214015 56 239 1.7 7.8 0.00 0.16 0.00 89 1022.6
20260507213521 56 242 1.7 7.8 0.00 0.17 0.00 89 1022.4
20260507213515 56 247 1.7 7.8 0.00 0.17 0.00 89 1022.5
20260507212516 56 241 1.7 7.8 0.00 0.17 0.00 89 1022.4
20260507212016 56 205 1.7 8.7 0.00 0.17 0.00 88 1022.3
20260507211521 56 239 1.7 9.6 0.00 0.17 0.00 88 1022.2
20260507211515 56 227 1.7 8.7 0.00 0.17 0.00 88 1022.3
20260507211144 56 264 2.6 9.6 0.00 0.18 0.00 88 1022.1
20260507210515 56 284 1.7 9.6 0.00 0.17 0.00 88 1022.2
20260507205515 56 260 1.7 7.8 0.00 0.18 0.00 88 1022.1
20260507205018 57 215 1.7 10.4 0.00 0.19 0.00 87 1021.9
20260507205013 56 203 1.7 7.0 0.00 0.19 0.00 87 1022.1
20260507204011 57 258 2.6 10.4 0.00 0.20 0.00 87 1022.0
20260507203511 57 245 2.6 8.7 0.00 0.20 0.00 87 1021.9
20260507203011 57 241 2.6 10.4 0.00 0.20 0.00 87 1021.9
20260507202515 57 273 1.7 7.8 0.00 0.20 0.00 87 1021.7
20260507202509 57 270 1.7 10.4 0.00 0.20 0.00 87 1021.9
20260507201516 57 238 2.6 10.4 0.00 0.22 0.00 86 1021.6
20260507201511 57 237 2.6 11.3 0.00 0.20 0.00 87 1021.7
20260507201009 57 249 2.6 11.3 0.00 0.21 0.00 86 1021.7
20260507200008 57 210 2.6 8.7 0.00 0.23 0.00 86 1021.5
20260507195507 57 210 2.6 10.4 0.00 0.24 0.00 86 1021.5
20260507195007 57 245 2.6 11.3 0.00 0.24 0.00 87 1021.5
20260507194509 57 256 1.7 10.4 0.00 0.24 0.00 87 1021.4
20260507194013 57 224 2.6 9.6 0.00 0.24 0.00 87 1021.3
20260507194009 57 180 1.7 7.8 0.00 0.24 0.00 87 1021.3
20260507193638 57 229 2.6 11.3 0.00 0.24 0.00 87 1021.2
20260507192507 57 214 2.6 11.3 0.00 0.24 0.00 87 1021.2
20260507192009 57 253 2.6 10.4 0.00 0.24 0.00 87 1021.1
20260507191507 57 259 1.7 7.0 0.00 0.24 0.00 87 1021.1
20260507191012 57 251 1.7 7.8 0.00 0.24 0.00 87 1021.1
20260507191006 57 210 1.7 7.0 0.00 0.24 0.00 87 1021.2
20260507190636 57 204 1.7 7.8 0.00 0.24 0.00 87 1021.1
20260507190136 57 239 1.7 7.0 0.00 0.24 0.00 87 1021.1
20260507185008 57 207 1.7 7.8 0.00 0.25 0.00 87 1021.0
20260507184507 57 250 1.7 7.8 0.00 0.26 0.00 87 1020.9
20260507184007 57 265 0.9 4.3 0.00 0.26 0.00 87 1020.9
20260507183512 57 226 1.7 9.6 0.00 0.26 0.00 87 1020.8
20260507183506 57 246 0.9 6.1 0.00 0.26 0.00 87 1020.9
20260507182505 57 267 1.7 9.6 0.00 0.27 0.00 87 1020.8
20260507182007 57 229 1.7 8.7 0.00 0.28 0.00 87 1020.8
20260507181504 57 245 0.9 8.7 0.00 0.30 0.00 87 1020.7
20260507181005 57 231 1.7 8.7 0.00 0.31 0.00 87 1020.7
20260507180513 57 193 1.7 8.7 0.00 0.31 0.00 86 1020.7
20260507180506 57 266 1.7 8.7 0.00 0.31 0.00 87 1020.6
20260507175505 57 279 1.7 8.7 0.00 0.31 0.00 86 1020.5
20260507175005 57 185 1.7 7.8 0.00 0.31 0.00 86 1020.5
20260507174509 57 243 1.7 10.4 0.00 0.31 0.00 86 1020.5
20260507174505 57 267 1.7 10.4 0.00 0.31 0.00 86 1020.4
20260507173502 57 314 1.7 9.6 0.00 0.31 0.00 86 1020.4
20260507173009 56 255 1.7 8.7 0.00 0.31 0.00 86 1020.5
20260507173003 56 239 1.7 9.6 0.00 0.31 0.00 86 1020.6
20260507172003 56 281 1.7 8.7 0.00 0.31 0.00 86 1020.5
20260507171503 56 209 1.7 8.7 0.00 0.31 0.00 86 1020.4
20260507171003 56 266 2.6 12.2 0.00 0.31 0.00 86 1020.5
20260507170510 56 283 2.6 9.6 0.00 0.31 0.00 86 1020.4
20260507170502 56 232 2.6 12.2 0.00 0.31 0.00 86 1020.6
20260507165503 56 242 2.6 9.6 0.00 0.31 0.00 86 1020.5
20260507165006 56 273 1.7 7.8 0.00 0.31 0.00 86 1020.5
20260507164505 56 250 1.7 8.7 0.00 0.31 0.00 85 1020.5
20260507164004 56 204 1.7 8.7 0.00 0.31 0.00 85 1020.6
20260507163504 56 274 1.7 7.8 0.00 0.31 0.00 85 1020.6
20260507163009 56 222 1.7 11.3 0.00 0.31 0.00 85 1020.7
20260507163003 56 224 1.7 11.3 0.00 0.31 0.00 85 1020.6
20260507162002 56 248 1.7 10.4 0.00 0.31 0.00 85 1020.7
20260507161503 56 342 1.7 10.4 0.00 0.31 0.00 85 1020.7
20260507161008 56 257 2.6 11.3 0.00 0.31 0.00 85 1020.7
20260507161002 56 256 1.7 11.3 0.00 0.31 0.00 85 1020.6
20260507160002 56 269 1.7 9.6 0.00 0.31 0.00 85 1020.7
20260507155503 56 271 1.7 9.6 0.00 0.31 0.00 85 1020.8
20260507155000 56 226 1.7 8.7 0.00 0.31 0.00 85 1020.8
20260507154500 56 241 1.7 8.7 0.00 0.31 0.00 85 1020.8
20260507154002 56 250 1.7 7.8 0.00 0.31 0.00 85 1020.9
20260507153502 56 310 1.7 9.6 0.00 0.31 0.00 85 1020.9
20260507152959 56 223 1.7 11.3 0.00 0.31 0.00 85 1021.0
20260507152505 56 256 1.7 9.6 0.00 0.31 0.00 85 1021.2
20260507152500 56 204 1.7 11.3 0.00 0.31 0.00 85 1021.0
20260507151958 56 251 1.7 6.1 0.00 0.31 0.00 85 1021.1
20260507151000 56 196 1.7 11.3 0.00 0.31 0.00 85 1021.2
20260507150458 56 224 1.7 11.3 0.00 0.31 0.00 85 1021.2
20260507145958 56 225 1.7 8.7 0.00 0.31 0.00 85 1021.3
20260507145458 56 266 1.7 8.7 0.00 0.31 0.00 85 1021.3
20260507144959 56 276 1.7 12.2 0.00 0.31 0.00 85 1021.2
20260507144458 56 293 1.7 12.2 0.00 0.31 0.00 85 1021.2
20260507144005 55 254 1.7 7.0 0.00 0.31 0.00 84 1021.5
20260507143959 55 262 1.7 10.4 0.00 0.31 0.00 84 1021.3
20260507143000 55 288 1.7 7.0 0.00 0.31 0.00 84 1021.5
20260507142500 55 224 1.7 9.6 0.00 0.31 0.00 84 1021.5
20260507142004 55 220 1.7 9.6 0.00 0.31 0.00 84 1021.6
20260507141959 55 289 1.7 9.6 0.00 0.31 0.00 84 1021.5
20260507140958 55 293 1.7 9.6 0.00 0.31 0.00 84 1021.6
20260507140458 55 260 1.7 11.3 0.00 0.31 0.00 84 1021.6
20260507135957 55 266 1.7 11.3 0.00 0.31 0.31 84 1021.6
20260507135459 55 270 1.7 8.7 0.00 0.31 0.31 84 1021.6
20260507134504 55 282 2.6 10.4 0.00 0.31 0.31 84 1021.7
20260507134458 55 237 1.7 7.0 0.00 0.31 0.31 84 1021.7
20260507133457 55 310 2.6 10.4 0.00 0.31 0.31 84 1021.8
20260507132955 55 241 2.6 9.6 0.00 0.31 0.31 84 1021.8
20260507132455 55 250 2.6 8.7 0.00 0.31 0.31 84 1021.9
20260507131953 55 226 1.7 6.1 0.00 0.31 0.31 84 1021.8
20260507131500 55 251 1.7 7.8 0.00 0.31 0.31 84 1022.3
20260507131455 55 235 1.7 7.8 0.00 0.31 0.31 84 1022.0
20260507130451 54 312 0.9 7.8 0.00 0.31 0.31 84 1022.4
20260507125952 54 295 1.7 7.8 0.00 0.31 0.31 84 1022.4
20260507125451 54 301 1.7 7.8 0.00 0.31 0.31 84 1022.4
20260507124951 54 243 1.7 7.8 0.00 0.31 0.31 84 1022.5
20260507124449 54 285 1.7 6.1 0.00 0.31 0.31 84 1022.5
20260507123951 54 220 1.7 5.2 0.00 0.31 0.31 83 1022.6
20260507123449 54 266 0.9 6.1 0.00 0.31 0.31 83 1022.6
20260507122949 54 307 1.7 9.6 0.00 0.31 0.31 83 1022.7
20260507122450 54 335 1.7 9.6 0.00 0.31 0.31 83 1022.8
20260507121958 54 319 1.7 8.7 0.00 0.31 0.31 82 1022.8
20260507121952 54 306 1.7 7.0 0.00 0.31 0.31 82 1022.8
20260507120951 54 249 1.7 8.7 0.00 0.31 0.31 82 1022.9
20260507120455 54 293 1.7 7.8 0.00 0.31 0.31 82 1022.9
20260507120449 54 292 1.7 7.8 0.00 0.31 0.31 82 1023.0
20260507120118 54 308 2.6 11.3 0.00 0.31 0.31 82 1022.9
20260507115616 54 301 2.6 10.4 0.00 0.31 0.31 82 1022.9
20260507114951 54 295 3.5 11.3 0.00 0.31 0.31 82 1022.9
20260507114617 54 271 1.7 8.7 0.00 0.31 0.31 82 1022.8
20260507113448 54 279 1.7 8.7 0.00 0.31 0.31 82 1022.9
20260507112948 53 285 1.7 7.0 0.00 0.31 0.31 82 1022.9
20260507112449 54 329 1.7 7.0 0.00 0.31 0.31 82 1022.9
20260507111946 54 274 2.6 8.7 0.00 0.31 0.31 82 1022.8
20260507111449 53 320 2.6 8.7 0.00 0.31 0.31 82 1022.9
20260507110948 53 298 1.7 8.7 0.00 0.31 0.31 82 1022.8
20260507110449 53 233 1.7 7.8 0.00 0.31 0.31 82 1022.8
20260507105946 53 313 2.6 7.8 0.00 0.31 0.31 82 1022.8
20260507105453 53 317 2.6 9.6 0.00 0.32 0.31 82 1022.8
20260507105447 53 276 2.6 9.6 0.00 0.32 0.31 82 1022.8
20260507104450 53 294 2.6 8.7 0.00 0.32 0.31 82 1022.9
20260507103949 53 272 2.6 9.6 0.00 0.32 0.31 82 1023.0
20260507103448 53 304 1.7 9.6 0.00 0.32 0.31 82 1023.2
20260507102948 53 274 1.7 8.7 0.00 0.32 0.31 82 1023.0
20260507102447 53 270 1.7 8.7 0.00 0.32 0.31 82 1023.1
20260507101947 53 315 1.7 7.8 0.00 0.32 0.31 81 1023.3
20260507101449 54 309 1.7 7.8 0.00 0.32 0.31 81 1023.3
20260507100948 54 270 1.7 9.6 0.00 0.32 0.31 80 1023.4
20260507100447 54 271 1.7 9.6 0.00 0.32 0.31 79 1023.4
20260507095947 54 197 1.7 8.7 0.00 0.32 0.31 78 1023.4
20260507095447 54 285 1.7 8.7 0.00 0.32 0.31 77 1023.4
20260507094947 54 297 2.6 8.7 0.00 0.33 0.31 77 1023.4
20260507094446 54 301 1.7 7.8 0.00 0.33 0.31 77 1023.3
20260507093954 54 278 1.7 7.8 0.00 0.34 0.31 76 1023.2
20260507093948 54 270 1.7 7.8 0.00 0.34 0.31 77 1023.2
20260507092948 54 185 1.7 11.3 0.00 0.35 0.31 76 1023.3
20260507092448 54 231 2.6 11.3 0.00 0.35 0.31 76 1023.2
20260507091947 54 250 2.6 8.7 0.00 0.35 0.31 75 1023.4
20260507091445 54 217 2.6 8.7 0.00 0.35 0.31 75 1023.2
20260507090947 54 245 2.6 8.7 0.00 0.35 0.31 75 1023.2
20260507090443 54 302 1.7 7.8 0.00 0.35 0.31 75 1023.1
20260507085949 54 189 1.7 6.1 0.00 0.35 0.31 75 1023.1
20260507085944 54 248 0.9 6.1 0.00 0.35 0.31 75 1023.1
20260507084941 54 239 1.7 6.1 0.00 0.35 0.31 74 1023.1
20260507084451 54 232 1.7 8.7 0.00 0.35 0.31 74 1022.9
20260507084443 54 237 1.7 6.1 0.00 0.35 0.31 74 1022.9
20260507084112 54 203 1.7 10.4 0.00 0.35 0.31 74 1022.9
20260507082944 54 203 0.9 10.4 0.00 0.35 0.31 74 1023.0
20260507082443 54 233 0.9 5.2 0.00 0.35 0.31 74 1022.8
20260507081941 55 231 1.7 8.7 0.00 0.35 0.31 74 1022.8
20260507081438 54 209 1.7 8.7 0.00 0.36 0.31 73 1022.8
20260507080945 55 196 1.7 8.7 0.00 0.41 0.31 74 1022.6
20260507080939 55 237 0.9 8.7 0.00 0.37 0.31 74 1022.8
20260507075938 55 259 1.7 8.7 0.00 0.46 0.31 74 1022.6
20260507075439 55 206 1.7 7.8 0.00 0.52 0.31 74 1022.7
20260507074939 55 189 1.7 8.7 0.00 0.53 0.31 74 1022.7
20260507074440 55 203 2.6 11.3 0.00 0.53 0.31 73 1022.7
20260507073940 55 238 3.5 11.3 0.00 0.53 0.31 73 1022.6
20260507073439 55 214 3.5 11.3 0.00 0.53 0.31 73 1022.6
20260507072943 55 245 3.5 11.3 0.00 0.53 0.31 72 1022.6
20260507072937 55 211 2.6 9.6 0.00 0.53 0.31 73 1022.5
20260507071944 55 216 4.3 12.2 0.00 0.53 0.31 71 1022.5
20260507071938 55 302 3.5 12.2 0.00 0.53 0.31 72 1022.4
20260507070938 55 218 3.5 11.3 0.00 0.53 0.31 71 1022.4
20260507070438 55 222 3.5 11.3 0.00 0.53 0.31 73 1022.4
20260507065937 55 209 3.5 11.3 0.00 0.53 0.31 73 1022.4
20260507065438 54 259 2.6 8.7 0.00 0.53 0.31 75 1022.4
20260507064934 54 202 1.7 8.7 0.00 0.53 0.31 77 1022.4
20260507064435 54 254 0.9 7.0 0.00 0.53 0.31 78 1022.5
20260507063935 54 273 1.7 9.6 0.00 0.53 0.31 77 1022.5
20260507063432 55 255 2.6 11.3 0.00 0.53 0.31 78 1022.5
20260507062934 54 175 2.6 11.3 0.00 0.53 0.31 78 1022.4
20260507062432 54 206 1.7 9.6 0.00 0.53 0.31 79 1022.5